Year,Month,Day,Hour,Minute,Value (Times are PST for temperature in C)
2013,04,24,00,00,6.80
2013,04,24,00,01,6.80
2013,04,24,00,02,6.80
2013,04,24,00,03,6.80
2013,04,24,00,04,6.80
2013,04,24,00,05,6.80
2013,04,24,00,06,6.80
2013,04,24,00,07,6.80
2013,04,24,00,08,6.80
2013,04,24,00,09,6.70
2013,04,24,00,10,6.70
2013,04,24,00,11,6.70
2013,04,24,00,12,6.70
2013,04,24,00,13,6.70
2013,04,24,00,14,6.70
2013,04,24,00,15,6.60
2013,04,24,00,16,6.60
2013,04,24,00,17,6.60
2013,04,24,00,18,6.60
2013,04,24,00,19,6.60
2013,04,24,00,20,6.60
2013,04,24,00,21,6.60
2013,04,24,00,22,6.60
2013,04,24,00,23,6.50
2013,04,24,00,24,6.40
2013,04,24,00,25,6.40
2013,04,24,00,26,6.40
2013,04,24,00,27,6.40
2013,04,24,00,28,6.40
2013,04,24,00,29,6.40
2013,04,24,00,30,6.40
2013,04,24,00,31,6.30
2013,04,24,00,32,6.30
2013,04,24,00,33,6.30
2013,04,24,00,34,6.30
2013,04,24,00,35,6.30
2013,04,24,00,36,6.30
2013,04,24,00,37,6.20
2013,04,24,00,38,6.20
2013,04,24,00,39,6.20
2013,04,24,00,40,6.20
2013,04,24,00,41,6.20
2013,04,24,00,42,6.20
2013,04,24,00,43,6.30
2013,04,24,00,44,6.30
2013,04,24,00,45,6.30
2013,04,24,00,46,6.20
2013,04,24,00,47,6.20
2013,04,24,00,48,6.20
2013,04,24,00,49,6.20
2013,04,24,00,50,6.20
2013,04,24,00,51,6.20
2013,04,24,00,52,6.20
2013,04,24,00,53,6.20
2013,04,24,00,54,6.20
2013,04,24,00,55,6.20
2013,04,24,00,56,6.20
2013,04,24,00,57,6.20
2013,04,24,00,58,6.10
2013,04,24,00,59,6.10
2013,04,24,01,00,6.10
2013,04,24,01,01,6.10
2013,04,24,01,02,6.00
2013,04,24,01,03,6.00
2013,04,24,01,04,6.00
2013,04,24,01,05,6.00
2013,04,24,01,06,6.00
2013,04,24,01,07,6.00
2013,04,24,01,08,6.00
2013,04,24,01,09,6.00
2013,04,24,01,10,6.00
2013,04,24,01,11,5.90
2013,04,24,01,12,5.90
2013,04,24,01,13,5.90
2013,04,24,01,14,5.90
2013,04,24,01,15,5.90
2013,04,24,01,16,5.90
2013,04,24,01,17,5.80
2013,04,24,01,18,5.80
2013,04,24,01,19,5.80
2013,04,24,01,20,5.80
2013,04,24,01,21,5.80
2013,04,24,01,22,5.80
2013,04,24,01,23,5.80
2013,04,24,01,24,5.80
2013,04,24,01,25,5.80
2013,04,24,01,26,5.80
2013,04,24,01,27,5.80
2013,04,24,01,28,5.80
2013,04,24,01,29,5.80
2013,04,24,01,30,5.70
2013,04,24,01,31,5.70
2013,04,24,01,32,5.70
2013,04,24,01,33,5.70
2013,04,24,01,34,5.70
2013,04,24,01,35,5.70
2013,04,24,01,36,5.70
2013,04,24,01,37,5.70
2013,04,24,01,38,5.70
2013,04,24,01,39,5.70
2013,04,24,01,40,5.70
2013,04,24,01,41,5.70
2013,04,24,01,42,5.70
2013,04,24,01,43,5.60
2013,04,24,01,44,5.60
2013,04,24,01,45,5.60
2013,04,24,01,46,5.60
2013,04,24,01,47,5.50
2013,04,24,01,48,5.50
2013,04,24,01,49,5.50
2013,04,24,01,50,5.50
2013,04,24,01,51,5.50
2013,04,24,01,52,5.50
2013,04,24,01,53,5.50
2013,04,24,01,54,5.40
2013,04,24,01,55,5.40
2013,04,24,01,56,5.40
2013,04,24,01,57,5.40
2013,04,24,01,58,5.30
2013,04,24,01,59,5.30
2013,04,24,02,00,5.30
2013,04,24,02,01,5.30
2013,04,24,02,02,5.30
2013,04,24,02,03,5.30
2013,04,24,02,04,5.30
2013,04,24,02,05,5.30
2013,04,24,02,06,5.30
2013,04,24,02,07,5.30
2013,04,24,02,08,5.30
2013,04,24,02,09,5.20
2013,04,24,02,10,5.20
2013,04,24,02,11,5.30
2013,04,24,02,12,5.20
2013,04,24,02,13,5.20
2013,04,24,02,14,5.20
2013,04,24,02,15,5.20
2013,04,24,02,16,5.20
2013,04,24,02,17,5.20
2013,04,24,02,18,5.20
2013,04,24,02,19,5.20
2013,04,24,02,20,5.20
2013,04,24,02,21,5.20
2013,04,24,02,22,5.20
2013,04,24,02,23,5.20
2013,04,24,02,24,5.10
2013,04,24,02,25,5.10
2013,04,24,02,26,5.10
2013,04,24,02,27,5.10
2013,04,24,02,28,5.10
2013,04,24,02,29,5.10
2013,04,24,02,30,5.10
2013,04,24,02,31,5.10
2013,04,24,02,32,5.10
2013,04,24,02,33,5.10
2013,04,24,02,34,5.10
2013,04,24,02,35,5.10
2013,04,24,02,36,5.10
2013,04,24,02,37,5.10
2013,04,24,02,38,5.10
2013,04,24,02,39,5.10
2013,04,24,02,40,5.10
2013,04,24,02,41,5.10
2013,04,24,02,42,5.10
2013,04,24,02,43,5.10
2013,04,24,02,44,5.10
2013,04,24,02,45,5.00
2013,04,24,02,46,4.90
2013,04,24,02,47,4.90
2013,04,24,02,48,4.90
2013,04,24,02,49,4.90
2013,04,24,02,50,4.90
2013,04,24,02,51,4.80
2013,04,24,02,52,4.80
2013,04,24,02,53,4.80
2013,04,24,02,54,4.70
2013,04,24,02,55,4.70
2013,04,24,02,56,4.70
2013,04,24,02,57,4.70
2013,04,24,02,58,4.60
2013,04,24,02,59,4.60
2013,04,24,03,00,4.60
2013,04,24,03,01,4.60
2013,04,24,03,02,4.60
2013,04,24,03,03,4.60
2013,04,24,03,04,4.60
2013,04,24,03,05,4.60
2013,04,24,03,06,4.60
2013,04,24,03,07,4.50
2013,04,24,03,08,4.50
2013,04,24,03,09,4.50
2013,04,24,03,10,4.40
2013,04,24,03,11,4.40
2013,04,24,03,12,4.40
2013,04,24,03,13,4.30
2013,04,24,03,14,4.30
2013,04,24,03,15,4.30
2013,04,24,03,16,4.30
2013,04,24,03,17,4.30
2013,04,24,03,18,4.30
2013,04,24,03,19,4.20
2013,04,24,03,20,4.20
2013,04,24,03,21,4.20
2013,04,24,03,22,4.20
2013,04,24,03,23,4.20
2013,04,24,03,24,4.20
2013,04,24,03,25,4.20
2013,04,24,03,26,4.20
2013,04,24,03,27,4.20
2013,04,24,03,28,4.20
2013,04,24,03,29,4.20
2013,04,24,03,30,4.20
2013,04,24,03,31,4.20
2013,04,24,03,32,4.20
2013,04,24,03,33,4.20
2013,04,24,03,34,4.20
2013,04,24,03,35,4.20
2013,04,24,03,36,4.20
2013,04,24,03,37,4.20
2013,04,24,03,38,4.20
2013,04,24,03,39,4.20
2013,04,24,03,40,4.20
2013,04,24,03,41,4.20
2013,04,24,03,42,4.20
2013,04,24,03,43,4.30
2013,04,24,03,44,4.30
2013,04,24,03,45,4.30
2013,04,24,03,46,4.30
2013,04,24,03,47,4.30
2013,04,24,03,48,4.20
2013,04,24,03,49,4.20
2013,04,24,03,50,4.20
2013,04,24,03,51,4.20
2013,04,24,03,52,4.20
2013,04,24,03,53,4.20
2013,04,24,03,54,4.20
2013,04,24,03,55,4.20
2013,04,24,03,56,4.20
2013,04,24,03,57,4.20
2013,04,24,03,58,4.20
2013,04,24,03,59,4.20
2013,04,24,04,00,4.20
2013,04,24,04,01,4.20
2013,04,24,04,02,4.20
2013,04,24,04,03,4.20
2013,04,24,04,04,4.20
2013,04,24,04,05,4.20
2013,04,24,04,06,4.20
2013,04,24,04,07,4.20
2013,04,24,04,08,4.20
2013,04,24,04,09,4.20
2013,04,24,04,10,4.10
2013,04,24,04,11,4.10
2013,04,24,04,12,4.10
2013,04,24,04,13,4.10
2013,04,24,04,14,4.10
2013,04,24,04,15,4.10
2013,04,24,04,16,4.10
2013,04,24,04,17,4.10
2013,04,24,04,18,4.10
2013,04,24,04,19,4.10
2013,04,24,04,20,4.10
2013,04,24,04,21,4.10
2013,04,24,04,22,4.10
2013,04,24,04,23,4.10
2013,04,24,04,24,4.10
2013,04,24,04,25,4.10
2013,04,24,04,26,4.10
2013,04,24,04,27,4.10
2013,04,24,04,28,4.10
2013,04,24,04,29,4.10
2013,04,24,04,30,4.10
2013,04,24,04,31,4.10
2013,04,24,04,32,4.10
2013,04,24,04,33,4.10
2013,04,24,04,34,4.10
2013,04,24,04,35,4.00
2013,04,24,04,36,4.00
2013,04,24,04,37,4.00
2013,04,24,04,38,4.00
2013,04,24,04,39,4.00
2013,04,24,04,40,4.00
2013,04,24,04,41,4.00
2013,04,24,04,42,3.90
2013,04,24,04,43,3.90
2013,04,24,04,44,3.90
2013,04,24,04,45,3.90
2013,04,24,04,46,3.90
2013,04,24,04,47,3.90
2013,04,24,04,48,3.90
2013,04,24,04,49,3.90
2013,04,24,04,50,3.90
2013,04,24,04,51,4.00
2013,04,24,04,52,4.00
2013,04,24,04,53,4.00
2013,04,24,04,54,4.00
2013,04,24,04,55,4.00
2013,04,24,04,56,4.00
2013,04,24,04,57,4.00
2013,04,24,04,58,3.90
2013,04,24,04,59,3.90
2013,04,24,05,00,3.80
2013,04,24,05,01,3.80
2013,04,24,05,02,3.80
2013,04,24,05,03,3.80
2013,04,24,05,04,3.80
2013,04,24,05,05,3.80
2013,04,24,05,06,3.80
2013,04,24,05,07,3.80
2013,04,24,05,08,3.80
2013,04,24,05,09,3.80
2013,04,24,05,10,3.80
2013,04,24,05,11,3.90
2013,04,24,05,12,4.00
2013,04,24,05,13,4.00
2013,04,24,05,14,4.00
2013,04,24,05,15,4.00
2013,04,24,05,16,3.90
2013,04,24,05,17,3.80
2013,04,24,05,18,3.80
2013,04,24,05,19,3.70
2013,04,24,05,20,3.70
2013,04,24,05,21,3.70
2013,04,24,05,22,3.70
2013,04,24,05,23,3.70
2013,04,24,05,24,3.80
2013,04,24,05,25,3.80
2013,04,24,05,26,3.80
2013,04,24,05,27,3.80
2013,04,24,05,28,3.80
2013,04,24,05,29,3.80
2013,04,24,05,30,3.80
2013,04,24,05,31,3.80
2013,04,24,05,32,3.80
2013,04,24,05,33,3.80
2013,04,24,05,34,3.80
2013,04,24,05,35,3.80
2013,04,24,05,36,3.80
2013,04,24,05,37,3.80
2013,04,24,05,38,3.80
2013,04,24,05,39,3.80
2013,04,24,05,40,3.80
2013,04,24,05,41,3.80
2013,04,24,05,42,3.80
2013,04,24,05,43,3.80
2013,04,24,05,44,3.80
2013,04,24,05,45,3.80
2013,04,24,05,46,3.80
2013,04,24,05,47,3.80
2013,04,24,05,48,3.80
2013,04,24,05,49,3.80
2013,04,24,05,50,3.80
2013,04,24,05,51,3.80
2013,04,24,05,52,3.80
2013,04,24,05,53,3.80
2013,04,24,05,54,3.80
2013,04,24,05,55,3.70
2013,04,24,05,56,3.70
2013,04,24,05,57,3.70
2013,04,24,05,58,3.60
2013,04,24,05,59,3.60
2013,04,24,06,00,3.60
2013,04,24,06,01,3.60
2013,04,24,06,02,3.60
2013,04,24,06,03,3.60
2013,04,24,06,04,3.60
2013,04,24,06,05,3.60
2013,04,24,06,06,3.60
2013,04,24,06,07,3.60
2013,04,24,06,08,3.60
2013,04,24,06,09,3.60
2013,04,24,06,10,3.70
2013,04,24,06,11,3.70
2013,04,24,06,12,3.70
2013,04,24,06,13,3.70
2013,04,24,06,14,3.70
2013,04,24,06,15,3.70
2013,04,24,06,16,3.70
2013,04,24,06,17,3.70
2013,04,24,06,18,3.70
2013,04,24,06,19,3.70
2013,04,24,06,20,3.70
2013,04,24,06,21,3.70
2013,04,24,06,22,3.70
2013,04,24,06,23,3.70
2013,04,24,06,24,3.80
2013,04,24,06,25,3.80
2013,04,24,06,26,3.80
2013,04,24,06,27,3.70
2013,04,24,06,28,3.70
2013,04,24,06,29,3.70
2013,04,24,06,30,3.70
2013,04,24,06,31,3.70
2013,04,24,06,32,3.70
2013,04,24,06,33,3.70
2013,04,24,06,34,3.70
2013,04,24,06,35,3.70
2013,04,24,06,36,3.70
2013,04,24,06,37,3.80
2013,04,24,06,38,3.80
2013,04,24,06,39,3.80
2013,04,24,06,40,3.90
2013,04,24,06,41,3.90
2013,04,24,06,42,4.00
2013,04,24,06,43,4.00
2013,04,24,06,44,4.10
2013,04,24,06,45,4.10
2013,04,24,06,46,4.20
2013,04,24,06,47,4.20
2013,04,24,06,48,4.20
2013,04,24,06,49,4.20
2013,04,24,06,50,4.20
2013,04,24,06,51,4.20
2013,04,24,06,52,4.20
2013,04,24,06,53,4.20
2013,04,24,06,54,4.20
2013,04,24,06,55,4.30
2013,04,24,06,56,4.30
2013,04,24,06,57,4.40
2013,04,24,06,58,4.50
2013,04,24,06,59,4.50
2013,04,24,07,00,4.60
2013,04,24,07,01,4.60
2013,04,24,07,02,4.70
2013,04,24,07,03,4.80
2013,04,24,07,04,4.80
2013,04,24,07,05,4.90
2013,04,24,07,06,5.00
2013,04,24,07,07,5.20
2013,04,24,07,08,5.50
2013,04,24,07,09,5.80
2013,04,24,07,10,6.10
2013,04,24,07,11,6.50
2013,04,24,07,12,6.80
2013,04,24,07,13,7.10
2013,04,24,07,14,7.40
2013,04,24,07,15,7.60
2013,04,24,07,16,7.80
2013,04,24,07,17,8.00
2013,04,24,07,18,8.10
2013,04,24,07,19,8.30
2013,04,24,07,20,8.50
2013,04,24,07,21,8.70
2013,04,24,07,22,8.80
2013,04,24,07,23,9.00
2013,04,24,07,24,9.10
2013,04,24,07,25,9.40
2013,04,24,07,26,9.60
2013,04,24,07,27,9.80
2013,04,24,07,28,9.90
2013,04,24,07,29,10.00
2013,04,24,07,30,10.10
2013,04,24,07,31,10.20
2013,04,24,07,32,10.30
2013,04,24,07,33,10.40
2013,04,24,07,34,10.60
2013,04,24,07,35,10.60
2013,04,24,07,36,10.70
2013,04,24,07,37,10.70
2013,04,24,07,38,10.80
2013,04,24,07,39,10.80
2013,04,24,07,40,10.80
2013,04,24,07,41,10.80
2013,04,24,07,42,10.80
2013,04,24,07,43,10.80
2013,04,24,07,44,10.80
2013,04,24,07,45,10.90
2013,04,24,07,46,10.90
2013,04,24,07,47,11.00
2013,04,24,07,48,11.10
2013,04,24,07,49,11.00
2013,04,24,07,50,10.90
2013,04,24,07,51,10.90
2013,04,24,07,52,10.80
2013,04,24,07,53,10.70
2013,04,24,07,54,10.60
2013,04,24,07,55,10.60
2013,04,24,07,56,10.60
2013,04,24,07,57,10.50
2013,04,24,07,58,10.40
2013,04,24,07,59,10.40
2013,04,24,08,00,10.30
2013,04,24,08,01,10.20
2013,04,24,08,02,10.20
2013,04,24,08,03,10.10
2013,04,24,08,04,10.10
2013,04,24,08,05,10.10
2013,04,24,08,06,10.10
2013,04,24,08,07,10.10
2013,04,24,08,08,10.10
2013,04,24,08,09,10.20
2013,04,24,08,10,10.20
2013,04,24,08,11,10.30
2013,04,24,08,12,10.40
2013,04,24,08,13,10.40
2013,04,24,08,14,10.50
2013,04,24,08,15,10.60
2013,04,24,08,16,10.70
2013,04,24,08,17,10.80
2013,04,24,08,18,10.80
2013,04,24,08,19,10.90
2013,04,24,08,20,10.90
2013,04,24,08,21,11.00
2013,04,24,08,22,11.10
2013,04,24,08,23,11.10
2013,04,24,08,24,11.10
2013,04,24,08,25,11.10
2013,04,24,08,26,11.10
2013,04,24,08,27,11.10
2013,04,24,08,28,11.10
2013,04,24,08,29,11.20
2013,04,24,08,30,11.30
2013,04,24,08,31,11.40
2013,04,24,08,32,11.40
2013,04,24,08,33,11.40
2013,04,24,08,34,11.40
2013,04,24,08,35,11.50
2013,04,24,08,36,11.60
2013,04,24,08,37,11.60
2013,04,24,08,38,11.60
2013,04,24,08,39,11.60
2013,04,24,08,40,11.60
2013,04,24,08,41,11.70
2013,04,24,08,42,11.60
2013,04,24,08,43,11.60
2013,04,24,08,44,11.60
2013,04,24,08,45,11.60
2013,04,24,08,46,11.60
2013,04,24,08,47,11.60
2013,04,24,08,48,11.70
2013,04,24,08,49,11.80
2013,04,24,08,50,11.80
2013,04,24,08,51,11.80
2013,04,24,08,52,11.90
2013,04,24,08,53,12.00
2013,04,24,08,54,12.10
2013,04,24,08,55,12.10
2013,04,24,08,56,12.30
2013,04,24,08,57,12.30
2013,04,24,08,58,12.40
2013,04,24,08,59,12.50
2013,04,24,09,00,12.60
2013,04,24,09,01,12.60
2013,04,24,09,02,12.60
2013,04,24,09,03,12.60
2013,04,24,09,04,12.60
2013,04,24,09,05,12.60
2013,04,24,09,06,12.60
2013,04,24,09,07,12.60
2013,04,24,09,08,12.70
2013,04,24,09,09,12.70
2013,04,24,09,10,12.80
2013,04,24,09,11,12.80
2013,04,24,09,12,12.80
2013,04,24,09,13,12.90
2013,04,24,09,14,13.00
2013,04,24,09,15,13.00
2013,04,24,09,16,13.00
2013,04,24,09,17,13.00
2013,04,24,09,18,13.00
2013,04,24,09,19,13.00
2013,04,24,09,20,13.00
2013,04,24,09,21,13.10
2013,04,24,09,22,13.00
2013,04,24,09,23,13.00
2013,04,24,09,24,13.00
2013,04,24,09,25,13.00
2013,04,24,09,26,13.00
2013,04,24,09,27,13.00
2013,04,24,09,28,13.00
2013,04,24,09,29,12.90
2013,04,24,09,30,12.90
2013,04,24,09,31,12.90
2013,04,24,09,32,12.90
2013,04,24,09,33,12.90
2013,04,24,09,34,12.90
2013,04,24,09,35,12.90
2013,04,24,09,36,12.90
2013,04,24,09,37,12.90
2013,04,24,09,38,12.90
2013,04,24,09,39,12.80
2013,04,24,09,40,12.80
2013,04,24,09,41,12.80
2013,04,24,09,42,12.80
2013,04,24,09,43,12.80
2013,04,24,09,44,12.80
2013,04,24,09,45,12.80
2013,04,24,09,46,12.80
2013,04,24,09,47,12.80
2013,04,24,09,48,12.80
2013,04,24,09,49,12.80
2013,04,24,09,50,12.80
2013,04,24,09,51,12.80
2013,04,24,09,52,12.90
2013,04,24,09,53,13.00
2013,04,24,09,54,13.10
2013,04,24,09,55,13.20
2013,04,24,09,56,13.30
2013,04,24,09,57,13.30
2013,04,24,09,58,13.20
2013,04,24,09,59,13.20
2013,04,24,10,00,13.20
2013,04,24,10,01,13.20
2013,04,24,10,02,13.20
2013,04,24,10,03,13.30
2013,04,24,10,04,13.40
2013,04,24,10,05,13.40
2013,04,24,10,06,13.40
2013,04,24,10,07,13.40
2013,04,24,10,08,13.40
2013,04,24,10,09,13.50
2013,04,24,10,10,13.50
2013,04,24,10,11,13.60
2013,04,24,10,12,13.70
2013,04,24,10,13,13.70
2013,04,24,10,14,13.80
2013,04,24,10,15,13.90
2013,04,24,10,16,14.00
2013,04,24,10,17,14.10
2013,04,24,10,18,14.00
2013,04,24,10,19,13.90
2013,04,24,10,20,13.90
2013,04,24,10,21,13.90
2013,04,24,10,22,13.80
2013,04,24,10,23,13.80
2013,04,24,10,24,13.70
2013,04,24,10,25,13.70
2013,04,24,10,26,13.70
2013,04,24,10,27,13.70
2013,04,24,10,28,13.70
2013,04,24,10,29,13.60
2013,04,24,10,30,13.70
2013,04,24,10,31,13.70
2013,04,24,10,32,13.70
2013,04,24,10,33,13.70
2013,04,24,10,34,13.70
2013,04,24,10,35,13.80
2013,04,24,10,36,13.90
2013,04,24,10,37,14.00
2013,04,24,10,38,14.10
2013,04,24,10,39,14.20
2013,04,24,10,40,14.30
2013,04,24,10,41,14.40
2013,04,24,10,42,14.50
2013,04,24,10,43,14.60
2013,04,24,10,44,14.70
2013,04,24,10,45,14.80
2013,04,24,10,46,14.80
2013,04,24,10,47,14.80
2013,04,24,10,48,14.80
2013,04,24,10,49,14.70
2013,04,24,10,50,14.60
2013,04,24,10,51,14.60
2013,04,24,10,52,14.60
2013,04,24,10,53,14.60
2013,04,24,10,54,14.60
2013,04,24,10,55,14.50
2013,04,24,10,56,14.40
2013,04,24,10,57,14.40
2013,04,24,10,58,14.40
2013,04,24,10,59,14.50
2013,04,24,11,00,14.50
2013,04,24,11,01,14.50
2013,04,24,11,02,14.50
2013,04,24,11,03,14.50
2013,04,24,11,04,14.50
2013,04,24,11,05,14.40
2013,04,24,11,06,14.50
2013,04,24,11,07,14.60
2013,04,24,11,08,14.60
2013,04,24,11,09,14.60
2013,04,24,11,10,14.60
2013,04,24,11,11,14.70
2013,04,24,11,12,14.80
2013,04,24,11,13,14.90
2013,04,24,11,14,14.90
2013,04,24,11,15,14.80
2013,04,24,11,16,14.80
2013,04,24,11,17,14.80
2013,04,24,11,18,14.80
2013,04,24,11,19,14.80
2013,04,24,11,20,14.90
2013,04,24,11,21,15.10
2013,04,24,11,22,15.30
2013,04,24,11,23,15.40
2013,04,24,11,24,15.50
2013,04,24,11,25,15.50
2013,04,24,11,26,15.60
2013,04,24,11,27,15.60
2013,04,24,11,28,15.60
2013,04,24,11,29,15.50
2013,04,24,11,30,15.30
2013,04,24,11,31,15.30
2013,04,24,11,32,15.30
2013,04,24,11,33,15.30
2013,04,24,11,34,15.30
2013,04,24,11,35,15.30
2013,04,24,11,36,15.50
2013,04,24,11,37,15.50
2013,04,24,11,38,15.60
2013,04,24,11,39,15.60
2013,04,24,11,40,15.60
2013,04,24,11,41,15.70
2013,04,24,11,42,15.70
2013,04,24,11,43,15.80
2013,04,24,11,44,16.00
2013,04,24,11,45,16.10
2013,04,24,11,46,16.20
2013,04,24,11,47,16.30
2013,04,24,11,48,16.40
2013,04,24,11,49,16.30
2013,04,24,11,50,16.20
2013,04,24,11,51,16.10
2013,04,24,11,52,16.20
2013,04,24,11,53,16.30
2013,04,24,11,54,16.40
2013,04,24,11,55,16.20
2013,04,24,11,56,16.00
2013,04,24,11,57,15.90
2013,04,24,11,58,15.80
2013,04,24,11,59,15.80
2013,04,24,12,00,15.80
2013,04,24,12,01,15.70
2013,04,24,12,02,15.80
2013,04,24,12,03,15.70
2013,04,24,12,04,15.60
2013,04,24,12,05,15.40
2013,04,24,12,06,15.30
2013,04,24,12,07,15.40
2013,04,24,12,08,15.50
2013,04,24,12,09,15.60
2013,04,24,12,10,15.60
2013,04,24,12,11,15.70
2013,04,24,12,12,15.60
2013,04,24,12,13,15.60
2013,04,24,12,14,15.60
2013,04,24,12,15,15.70
2013,04,24,12,16,15.80
2013,04,24,12,17,16.00
2013,04,24,12,18,16.10
2013,04,24,12,19,16.10
2013,04,24,12,20,16.30
2013,04,24,12,21,16.30
2013,04,24,12,22,16.40
2013,04,24,12,23,16.40
2013,04,24,12,24,16.40
2013,04,24,12,25,16.50
2013,04,24,12,26,16.70
2013,04,24,12,27,16.70
2013,04,24,12,28,16.60
2013,04,24,12,29,16.40
2013,04,24,12,30,16.10
2013,04,24,12,31,16.00
2013,04,24,12,32,15.80
2013,04,24,12,33,15.80
2013,04,24,12,34,15.90
2013,04,24,12,35,16.10
2013,04,24,12,36,16.20
2013,04,24,12,37,16.20
2013,04,24,12,38,16.20
2013,04,24,12,39,16.10
2013,04,24,12,40,16.10
2013,04,24,12,41,16.20
2013,04,24,12,42,16.20
2013,04,24,12,43,16.30
2013,04,24,12,44,16.30
2013,04,24,12,45,16.40
2013,04,24,12,46,16.40
2013,04,24,12,47,16.40
2013,04,24,12,48,16.40
2013,04,24,12,49,16.60
2013,04,24,12,50,16.60
2013,04,24,12,51,16.70
2013,04,24,12,52,16.80
2013,04,24,12,53,16.90
2013,04,24,12,54,16.90
2013,04,24,12,55,17.00
2013,04,24,12,56,17.00
2013,04,24,12,57,17.00
2013,04,24,12,58,17.00
2013,04,24,12,59,17.00
2013,04,24,13,00,16.90
2013,04,24,13,01,16.90
2013,04,24,13,02,16.90
2013,04,24,13,03,16.90
2013,04,24,13,04,16.90
2013,04,24,13,05,16.90
2013,04,24,13,06,17.00
2013,04,24,13,07,17.00
2013,04,24,13,08,17.10
2013,04,24,13,09,17.10
2013,04,24,13,10,17.00
2013,04,24,13,11,17.00
2013,04,24,13,12,17.00
2013,04,24,13,13,16.90
2013,04,24,13,14,16.80
2013,04,24,13,15,16.80
2013,04,24,13,16,16.70
2013,04,24,13,17,16.70
2013,04,24,13,18,16.70
2013,04,24,13,19,16.80
2013,04,24,13,20,16.90
2013,04,24,13,21,16.90
2013,04,24,13,22,16.90
2013,04,24,13,23,17.00
2013,04,24,13,24,16.90
2013,04,24,13,25,16.90
2013,04,24,13,26,16.90
2013,04,24,13,27,16.90
2013,04,24,13,28,16.90
2013,04,24,13,29,16.90
2013,04,24,13,30,16.80
2013,04,24,13,31,16.90
2013,04,24,13,32,17.00
2013,04,24,13,33,17.20
2013,04,24,13,34,17.30
2013,04,24,13,35,17.50
2013,04,24,13,36,17.40
2013,04,24,13,37,17.30
2013,04,24,13,38,17.20
2013,04,24,13,39,17.20
2013,04,24,13,40,17.20
2013,04,24,13,41,17.00
2013,04,24,13,42,16.90
2013,04,24,13,43,16.70
2013,04,24,13,44,16.50
2013,04,24,13,45,16.30
2013,04,24,13,46,16.20
2013,04,24,13,47,16.00
2013,04,24,13,48,15.90
2013,04,24,13,49,15.80
2013,04,24,13,50,15.70
2013,04,24,13,51,15.70
2013,04,24,13,52,15.70
2013,04,24,13,53,15.90
2013,04,24,13,54,16.10
2013,04,24,13,55,16.30
2013,04,24,13,56,16.40
2013,04,24,13,57,16.50
2013,04,24,13,58,16.50
2013,04,24,13,59,16.40
2013,04,24,14,00,16.40
2013,04,24,14,01,16.40
2013,04,24,14,02,16.30
2013,04,24,14,03,16.20
2013,04,24,14,04,16.10
2013,04,24,14,05,16.00
2013,04,24,14,06,15.90
2013,04,24,14,07,15.80
2013,04,24,14,08,15.80
2013,04,24,14,09,15.90
2013,04,24,14,10,15.90
2013,04,24,14,11,15.90
2013,04,24,14,12,15.90
2013,04,24,14,13,16.00
2013,04,24,14,14,16.10
2013,04,24,14,15,16.10
2013,04,24,14,16,16.10
2013,04,24,14,17,16.10
2013,04,24,14,18,16.10
2013,04,24,14,19,16.10
2013,04,24,14,20,16.10
2013,04,24,14,21,16.10
2013,04,24,14,22,16.10
2013,04,24,14,23,16.10
2013,04,24,14,24,16.10
2013,04,24,14,25,16.20
2013,04,24,14,26,16.20
2013,04,24,14,27,16.40
2013,04,24,14,28,16.50
2013,04,24,14,29,16.70
2013,04,24,14,30,16.80
2013,04,24,14,31,16.90
2013,04,24,14,32,17.00
2013,04,24,14,33,17.00
2013,04,24,14,34,16.90
2013,04,24,14,35,17.00
2013,04,24,14,36,17.00
2013,04,24,14,37,17.00
2013,04,24,14,38,17.10
2013,04,24,14,39,17.20
2013,04,24,14,40,17.30
2013,04,24,14,41,17.40
2013,04,24,14,42,17.50
2013,04,24,14,43,17.40
2013,04,24,14,44,17.40
2013,04,24,14,45,17.30
2013,04,24,14,46,17.10
2013,04,24,14,47,16.90
2013,04,24,14,48,16.70
2013,04,24,14,49,16.60
2013,04,24,14,50,16.50
2013,04,24,14,51,16.50
2013,04,24,14,52,16.60
2013,04,24,14,53,16.60
2013,04,24,14,54,16.40
2013,04,24,14,55,16.40
2013,04,24,14,56,16.30
2013,04,24,14,57,16.20
2013,04,24,14,58,16.10
2013,04,24,14,59,16.10
2013,04,24,15,00,16.10
2013,04,24,15,01,16.30
2013,04,24,15,02,16.40
2013,04,24,15,03,16.60
2013,04,24,15,04,16.50
2013,04,24,15,05,16.50
2013,04,24,15,06,16.40
2013,04,24,15,07,16.40
2013,04,24,15,08,16.40
2013,04,24,15,09,16.40
2013,04,24,15,10,16.40
2013,04,24,15,11,16.50
2013,04,24,15,12,16.50
2013,04,24,15,13,16.40
2013,04,24,15,14,16.40
2013,04,24,15,15,16.40
2013,04,24,15,16,16.40
2013,04,24,15,17,16.30
2013,04,24,15,18,16.30
2013,04,24,15,19,16.30
2013,04,24,15,20,16.40
2013,04,24,15,21,16.50
2013,04,24,15,22,16.60
2013,04,24,15,23,16.70
2013,04,24,15,24,16.70
2013,04,24,15,25,16.60
2013,04,24,15,26,16.50
2013,04,24,15,27,16.40
2013,04,24,15,28,16.30
2013,04,24,15,29,16.30
2013,04,24,15,30,16.40
2013,04,24,15,31,16.40
2013,04,24,15,32,16.40
2013,04,24,15,33,16.40
2013,04,24,15,34,16.40
2013,04,24,15,35,16.60
2013,04,24,15,36,16.50
2013,04,24,15,37,16.40
2013,04,24,15,38,16.40
2013,04,24,15,39,16.40
2013,04,24,15,40,16.40
2013,04,24,15,41,16.40
2013,04,24,15,42,16.40
2013,04,24,15,43,16.40
2013,04,24,15,44,16.40
2013,04,24,15,45,16.40
2013,04,24,15,46,16.40
2013,04,24,15,47,16.40
2013,04,24,15,48,16.40
2013,04,24,15,49,16.40
2013,04,24,15,50,16.40
2013,04,24,15,51,16.40
2013,04,24,15,52,16.40
2013,04,24,15,53,16.40
2013,04,24,15,54,16.40
2013,04,24,15,55,16.50
2013,04,24,15,56,16.60
2013,04,24,15,57,16.70
2013,04,24,15,58,16.70
2013,04,24,15,59,16.60
2013,04,24,16,00,16.60
2013,04,24,16,01,16.50
2013,04,24,16,02,16.40
2013,04,24,16,03,16.40
2013,04,24,16,04,16.30
2013,04,24,16,05,16.20
2013,04,24,16,06,16.20
2013,04,24,16,07,16.20
2013,04,24,16,08,16.10
2013,04,24,16,09,16.10
2013,04,24,16,10,16.20
2013,04,24,16,11,16.30
2013,04,24,16,12,16.30
2013,04,24,16,13,16.30
2013,04,24,16,14,16.30
2013,04,24,16,15,16.30
2013,04,24,16,16,16.20
2013,04,24,16,17,16.10
2013,04,24,16,18,16.10
2013,04,24,16,19,16.00
2013,04,24,16,20,15.90
2013,04,24,16,21,15.90
2013,04,24,16,22,16.00
2013,04,24,16,23,16.10
2013,04,24,16,24,16.10
2013,04,24,16,25,16.10
2013,04,24,16,26,16.10
2013,04,24,16,27,16.10
2013,04,24,16,28,16.10
2013,04,24,16,29,16.10
2013,04,24,16,30,16.10
2013,04,24,16,31,16.00
2013,04,24,16,32,15.90
2013,04,24,16,33,16.00
2013,04,24,16,34,16.10
2013,04,24,16,35,16.10
2013,04,24,16,36,16.10
2013,04,24,16,37,16.10
2013,04,24,16,38,16.20
2013,04,24,16,39,16.20
2013,04,24,16,40,16.20
2013,04,24,16,41,16.20
2013,04,24,16,42,16.20
2013,04,24,16,43,16.30
2013,04,24,16,44,16.30
2013,04,24,16,45,16.30
2013,04,24,16,46,16.30
2013,04,24,16,47,16.30
2013,04,24,16,48,16.20
2013,04,24,16,49,16.20
2013,04,24,16,50,16.20
2013,04,24,16,51,16.30
2013,04,24,16,52,16.30
2013,04,24,16,53,16.40
2013,04,24,16,54,16.40
2013,04,24,16,55,16.40
2013,04,24,16,56,16.40
2013,04,24,16,57,16.40
2013,04,24,16,58,16.50
2013,04,24,16,59,16.60
2013,04,24,17,00,16.60
2013,04,24,17,01,16.70
2013,04,24,17,02,16.70
2013,04,24,17,03,16.60
2013,04,24,17,04,16.60
2013,04,24,17,05,16.60
2013,04,24,17,06,16.70
2013,04,24,17,07,16.80
2013,04,24,17,08,16.80
2013,04,24,17,09,16.80
2013,04,24,17,10,16.80
2013,04,24,17,11,16.80
2013,04,24,17,12,16.90
2013,04,24,17,13,16.90
2013,04,24,17,14,17.00
2013,04,24,17,15,17.10
2013,04,24,17,16,17.10
2013,04,24,17,17,16.90
2013,04,24,17,18,16.90
2013,04,24,17,19,16.90
2013,04,24,17,20,16.90
2013,04,24,17,21,16.80
2013,04,24,17,22,16.90
2013,04,24,17,23,17.00
2013,04,24,17,24,17.00
2013,04,24,17,25,17.20
2013,04,24,17,26,17.30
2013,04,24,17,27,17.40
2013,04,24,17,28,17.40
2013,04,24,17,29,17.40
2013,04,24,17,30,17.40
2013,04,24,17,31,17.50
2013,04,24,17,32,17.50
2013,04,24,17,33,17.50
2013,04,24,17,34,17.30
2013,04,24,17,35,17.20
2013,04,24,17,36,17.10
2013,04,24,17,37,17.10
2013,04,24,17,38,17.00